Starlink 34067

operational
NORAD ID: 64115 Int'l Des: 2025-110 Owner: SPXS Country: US Constellation: starlink
LEOCIRCULAR

About Starlink 34067

Description loading...

Live Position

Loading 3D Globe...

Upcoming Passes

Altitude History

Altitude vs Time

uPlot chart will show altitude changes over time

Two-Line Element Set

1 64115U 25110V 25260.97541132 .00052464 00000-0 13108-2 0 9999
2 64115 53.1579 112.2331 0001468 81.9241 278.1931 15.39660979 19394
Epoch: Sep 17, 2025 • Age: 25 hours

Current Status

Altitude 451.0 km
Velocity 7.65 km/s
Sub-Earth Point 47.02°N, 152.89°E
Launch Date May 23, 2025
Age 0.3 years
Type internet

Technical Details

Classification Payload
Mass 575.00 kg
Dry Mass 530.00 kg
Total Mass 575.00 kg
Length 0.30 m
Diameter 4.10 m
Span 29.00 m
Shape Box + pan
Manufacturer SPXS
Bus Type Starlink V2MO
Phase Status In Orbit
Owner/State SPXS/US

Large Constellations

Loading constellations...